Location: Bratucice
(50.0658°N, 20.5392°E)
Time: 06:14:27
(UTC+00:00)

Daily predictions for brighter satellites

Satellite Brightness Start Highest point End
(mag) Time Altitude Azimuth Time Altitude Azimuth Time Altitude Azimuth
Cosmos 2369 Rocket 2.4 15:05:08 10° SW 15:10:46 76° WNW 15:16:28 10° NNE
SL-16 R/B 2.7 15:05:47 10° NNE 15:11:57 58° ESE 15:18:03 10° S
Cosmos 2151 Rocket 4.4 15:07:44 10° SSW 15:12:08 54° WNW 15:16:33 10° N
CORIOLIS 4.4 15:10:19 10° SE 15:15:22 46° ENE 15:20:27 10° N
Cosmos 2278 Rocket 4.2 15:13:15 10° WNW 15:17:06 18° NW 15:20:58 10° N
Cosmos 44 3.6 15:13:31 10° NW 15:18:45 86° SW 15:24:07 10° SE
USA 276 3.5 15:18:50 10° SW 15:19:17 11° SSW 15:19:44 10° S
USA 290 4.3 15:19:01 10° NNE 15:20:08 11° NE 15:21:15 10° ENE
Cosmos 2151 4.4 15:19:37 10° NNE 15:22:21 17° ENE 15:25:05 10° ESE
Cosmos 1455 Rocket 3.0 15:19:42 10° S 15:23:59 68° E 15:28:19 10° NNE
NOSS 2-2 (C) 4.1 15:23:06 10° S 15:25:51 24° SE 15:28:13 11° ENE
CZ-2D R/B 3.8 15:23:39 10° ESE 15:26:14 24° ENE 15:28:51 10° NNE
Cosmos 1570 Rocket 4.4 15:21:51 10° NNW 15:26:58 44° ENE 15:32:03 10° SE
Cosmos 1943 Rocket 4.3 15:23:49 10° WNW 15:27:03 15° NNW 15:30:18 10° N
Meteor 1-28 Rocket 3.0 15:25:32 10° NNE 15:28:51 53° E 15:32:08 10° S
Lacrosse 5 rocket 1.8 15:26:24 10° SSW 15:29:55 38° SE 15:33:05 12° ENE
Cosmos 1782 4.0 15:27:45 10° SE 15:30:25 20° E 15:33:05 10° NE
Cosmos 1743 3.7 15:31:50 10° NNE 15:34:14 18° ENE 15:36:35 10° ESE
Cosmos 1607 4.4 15:32:27 10° NW 15:38:18 41° NE 15:44:11 10° ESE
SMAP 3.0 15:36:39 10° SSE 15:41:15 65° ENE 15:45:53 10° N
COSMO-SKYMED 1 4.5 15:42:45 11° E 15:42:45 11° E 15:43:14 10° E
YAOGAN 1 3.9 15:39:24 10° ESE 15:42:14 18° ENE 15:45:05 10° NNE
GEOS 3 Rocket 3.8 15:39:19 10° NE 15:44:43 85° NW 15:50:06 10° SW
Meteor 1-27 4.3 15:41:24 10° S 15:47:11 73° E 15:52:59 10° NNE
Landsat 7 3.8 15:43:33 10° SSE 15:48:06 58° ENE 15:52:41 10° N
SJ 16-02 3.9 15:47:06 10° WNW 15:48:33 11° NW 15:49:59 10° NNW
Lacrosse 4 Rocket 1.3 15:45:58 10° SSW 15:50:04 85° ESE 15:53:41 13° NE
ATLAS CENTAUR R/B 1.5 15:51:24 10° NNW 15:54:23 31° NE 15:56:00 19° E
BREEZE-M DEB (TANK) 3.2 15:52:28 10° W 15:55:09 72° N 16:00:56 16° ENE
IRS-1C 4.1 15:50:01 10° SSE 15:55:17 70° ENE 16:00:36 10° NNW
CENTAUR R/B 2.5 15:49:47 10° SW 15:55:27 90° NNW 16:02:03 13° NE
SPOT 1/Viking Rocket 4.0 15:51:29 10° SE 15:56:13 37° ENE 16:00:59 10° N
IGS 5A 4.1 15:53:18 10° S 15:57:11 56° W 16:01:07 10° NNW
Cosmos 2208 Rocket 4.0 15:53:12 10° NNW 15:58:17 55° ENE 16:03:22 10° SE
Cosmos 2297 Rocket 2.4 15:53:14 10° NNW 15:58:44 48° NE 16:04:11 10° SE
Cosmos 1758 Rocket 3.5 15:54:30 10° N 15:58:48 57° ENE 16:03:02 10° SSE
AQUARIUS 4.2 15:54:36 10° SSE 15:58:54 55° ENE 16:03:14 10° N
MOS 1 Rocket 3.5 15:54:20 10° SE 15:58:57 53° ENE 16:03:54 10° N
ARIANE 5 R/B 2.4 15:55:17 10° SSE 16:00:18 77° ENE 16:05:26 10° NNW
Iridium 51 3.8 15:57:59 10° S 16:01:03 76° W 16:04:14 10° N
Cosmos 773 Rocket 4.0 15:57:12 10° NNW 16:02:21 59° ENE 16:07:30 10° SE
Cosmos 2098 Rocket 3.3 15:59:15 10° SSE 16:02:48 40° E 16:06:58 10° NNE
Cosmos 2084 3.4 15:59:14 10° SW 16:03:26 77° NW 16:06:28 18° NE
Cosmos 2084 Rocket 4.3 15:59:50 10° NNW 16:03:34 29° NNE 16:05:17 22° ENE
USA 215 3.6 15:58:37 16° ENE 16:03:48 51° N 16:10:06 10° WNW
CZ-2D R/B 4.2 16:01:18 10° SE 16:05:02 31° ENE 16:08:45 10° N
UNK 3.7 16:01:33 10° NNE 16:06:11 84° ESE 16:10:44 10° SSW
Cosmos 1656 3.9 16:08:02 10° S 16:13:25 49° ESE 16:17:23 18° NE
Cosmos 1634 Rocket 4.2 16:07:56 10° SSW 16:14:08 77° WNW 16:20:21 10° N
Cosmos 2228 3.4 16:14:57 10° SSW 16:19:08 64° WNW 16:23:23 10° N
Cosmos 405 Rocket 2.9 16:17:19 10° NNW 16:20:33 58° W 16:23:44 10° S
NOSS 3-3 (C) 4.5 16:13:52 10° NW 16:21:02 71° NE 16:29:38 10° SE
NOSS 2-2 (D) 3.1 16:19:26 10° SSW 16:22:40 45° SE 16:23:09 40° E
Cosmos 1626 Rocket 3.8 16:19:51 10° NNW 16:24:12 69° W 16:28:28 10° S
NOSS 2-2 (E) 3.3 16:23:04 10° SSW 16:26:15 38° SE 16:26:26 38° ESE
SJ-6F 4.3 16:23:44 10° SSE 16:27:42 88° WSW 16:31:43 10° NNW
SL-08 ROCKET BODY 4.5 16:21:58 10° NNW 16:27:53 81° W 16:33:52 10° S
Okean 1-7 Rocket 3.6 16:26:18 10° N 16:30:39 54° ENE 16:34:57 10° SSE
Cosmos 1606 Rocket 4.1 16:29:40 10° SSE 16:33:40 36° E 16:33:46 36° E
Cosmos 2279 Rocket 4.1 16:28:24 10° SSW 16:34:36 77° W 16:40:52 10° N
Cosmos 1315 Rocket 4.4 16:33:37 10° SW 16:37:05 32° WNW 16:40:36 10° N
CZ-4C R/B 2.8 16:30:52 10° NW 16:37:30 67° NE 16:44:46 14° ESE
Resurs 1-3 3.6 16:34:38 10° SSE 16:38:48 52° ENE 16:43:00 10° N
Cosmos 2360 4.3 16:33:39 10° S 16:39:14 58° ESE 16:42:03 29° NE
BlueWalker 3 2.0 16:35:40 10° WNW 16:39:16 65° SSW 16:40:30 37° SE
NOSS 3-2 (C) 3.6 16:36:13 10° S 16:40:49 38° ESE 16:41:55 34° E
Cosmos 1544 Rocket 3.9 16:38:03 10° SSW 16:42:24 65° WNW 16:46:49 10° N
Cosmos 2180 Rocket 4.4 16:36:30 10° S 16:42:38 89° E 16:48:49 10° N
IRIDIUM 104 4.3 16:38:19 10° N 16:43:35 83° W 16:48:48 10° S
Cosmos 2263 Rocket 2.9 16:38:52 10° NNW 16:43:55 32° NE 16:44:07 32° NE
NOSS 3-2 (A) 3.1 16:38:55 10° SW 16:43:59 87° SE 16:47:01 30° NE
SKYMED 2 3.4 16:46:36 34° NNE 16:48:23 68° ESE 16:52:42 10° S
Cosmos 1503 Rocket 4.1 16:43:28 10° S 16:48:33 52° ESE 16:49:52 41° ENE
Cosmos 2227 Rocket 2.3 16:43:55 10° NNW 16:49:27 51° NE 16:51:16 37° ESE
IRAS Rocket 4.1 16:45:23 10° SSE 16:50:49 69° ENE 16:56:17 10° NNW
Cosmos 1354 Rocket 4.4 16:49:08 10° S 16:53:57 42° ESE 16:53:57 42° ESE
Cosmos 1933 3.7 16:50:41 10° S 16:53:30 44° SSE 16:53:30 44° SSE
USA 290 2.5 16:51:41 10° NNW 16:54:37 66° WNW 16:54:37 66° WNW
SL-16 R/B 4.1 16:49:48 10° N 16:55:13 32° WNW 17:00:37 10° WSW
Cosmos 2369 Rocket 4.3 16:51:39 10° W 16:55:46 20° NW 16:59:54 10° N
Spot 4 Rocket 3.9 16:51:23 10° SSE 16:56:29 85° ENE 17:01:38 10° NNW
Resurs 01 Rocket 3.9 17:00:35 12° N 17:00:35 12° N 17:00:59 10° N
BREEZE M DEB (TANK) 4.2 16:46:56 10° WNW 16:57:02 46° SW 16:59:20 21° SSE
Cosmos 2151 3.5 16:55:28 10° NNW 16:59:32 56° W 17:03:36 10° S
Cosmos 1602 Rocket 4.3 16:57:06 10° NNW 17:01:25 53° W 17:05:40 10° S
Cosmos 1726 Rocket 4.2 16:57:09 10° S 17:00:32 42° SE 17:00:32 42° SE
Cosmos 1867 3.5 16:56:39 10° NW 17:02:07 68° NE 17:03:27 50° ESE
Meteor 1-20 Rocket 4.5 16:59:23 10° NNW 17:04:50 65° W 17:10:13 10° S
Cosmos 1782 4.2 17:01:45 10° SW 17:05:03 33° WNW 17:07:26 16° NNW
Lacrosse 5 rocket 1.7 17:03:17 10° W 17:06:42 47° NW 17:06:42 47° NW
Cosmos 1743 4.3 17:04:58 10° NNW 17:07:51 29° W 17:10:43 10° SSW
Cosmos 2266 Rocket 4.3 17:03:36 10° NNW 17:09:44 64° W 17:15:44 10° S
Cosmos 1697 Rocket 2.9 17:06:03 10° S 17:11:02 49° SE 17:11:02 49° SE
Cosmos 1777 Rocket 3.9 17:08:18 10° SSW 17:13:35 88° WNW 17:15:05 48° NNE
YAOGAN 1 2.9 17:13:26 10° S 17:17:39 63° W 17:21:54 10° NNW
COSMO-SKYMED 1 2.9 17:19:05 53° SSW 17:19:05 53° SSW 17:22:16 10° SSW
PSLV R/B 3.8 17:21:32 55° SW 17:22:06 62° WSW 17:26:07 10° NNW
Cosmos 1486 Rocket 4.5 17:20:22 10° SW 17:25:29 58° WNW 17:27:28 36° N
Cosmos 1607 4.4 17:19:43 10° NW 17:25:50 60° WSW 17:30:36 17° SSE
BREEZE-M DEB (TANK) 4.1 17:23:55 10° W 17:27:46 80° S 17:30:09 47° ESE
SL-19 R/B 4.5 17:22:57 10° S 17:28:12 65° WSW 17:33:43 10° NNW
Lacrosse 4 Rocket 3.5 17:25:36 10° W 17:28:26 18° NW 17:29:11 17° NNW
ATLAS CENTAUR R/B 3.0 17:26:22 10° WNW 17:28:21 24° W 17:28:21 24° W
Cosmos 1825 Rocket 4.5 17:32:08 10° NNW 17:36:20 46° W 17:40:28 10° SSW
NOAA 6 4.3 17:33:27 10° S 17:38:32 64° WSW 17:43:36 10° NNW
Cosmos 2297 Rocket 3.7 17:37:33 10° NW 17:42:38 35° WSW 17:47:41 10° S
USA 215 3.1 17:45:59 76° E 17:46:29 82° NNE 17:53:05 10° WNW
CENTAUR R/B 3.8 17:41:13 10° W 17:46:59 36° NNW 17:49:09 30° NNE
Cosmos 1655 Rocket 4.4 17:44:09 10° NNW 17:50:16 59° W 17:56:21 10° S
Cosmos 2219 4.3 17:48:08 10° NNW 17:51:24 34° N 17:51:24 34° N
USA 281 4.2 18:06:13 35° N 18:06:13 35° N 18:10:02 10° NNW
Cosmos 1980 Rocket 4.4 18:06:27 10° SSW 18:07:09 14° SSW 18:07:09 14° SSW
CZ-4C R/B 3.9 18:19:11 10° NW 18:25:52 43° WSW 18:29:51 27° S
Cosmos 2263 Rocket 3.6 18:22:36 10° NW 18:25:49 34° NW 18:25:49 34° NW
Cosmos 2227 Rocket 3.7 18:28:20 10° NW 18:33:08 32° WSW 18:33:08 32° WSW
